Hurricane Symbol View the latest observations near East Pacific Tropical Storm Bud.

Station BATN6 - 8518750 - The Battery, NY Image indicating link to RSS feed of recent meteorological observations for station BATN6


Conditions at BATN6 as of
(8:48 pm EDT on 07/24/2024)
0048 GMT on 07/25/2024:
     

Click on the graph icon in the table below to see a time series plot of the last five days of that observation.

5-day plot - Atmospheric Pressure Atmospheric Pressure (PRES):30.03 in
5-day plot - Air Temperature Air Temperature (ATMP): 76.8 °F
5-day plot - Water Temperature Water Temperature (WTMP): 72.3 °F
NOS Water Level Observation Network Water Level
Previous observations
TIME
(EDT)
5-day plot - Wind Direction
WDIR
 
5-day plot - Wind Speed
WSPD
kts
5-day plot - Wind Gust
GST
kts
5-day plot - Wave Height
WVHT
ft
5-day plot - Dominant Wave Period
DPD
sec
5-day plot - Average Wave Period
APD
sec
5-day plot - Mean Wave Direction
MWD
 
5-day plot - Atmospheric Pressure
PRES
in
5-day plot - Pressure Tendency
PTDY
in
5-day plot - Air Temperature
ATMP
°F
5-day plot - Water Temperature
WTMP
°F
5-day plot - Dew Point
DEWP
°F
5-day plot - Salinity
SAL
psu
5-day plot - Visibility
VIS
nmi
5-day plot - Tide (above MLLW)
TIDE
ft
2024-07-24 08:42 pm-------30.02- 77.0 72.3----
2024-07-24 08:36 pm-------30.03- 77.2 72.5----
2024-07-24 08:30 pm-------30.03- 77.0 72.5----
2024-07-24 08:24 pm-------30.02- 77.0 72.5----
2024-07-24 08:18 pm-------30.02- 77.0 72.7----
2024-07-24 08:12 pm-------30.02- 77.4 72.7----
2024-07-24 08:06 pm-------30.02- 77.5 72.7----
2024-07-24 08:00 pm-------30.02+0.00 77.4 72.7----
2024-07-24 07:54 pm-------30.02- 77.4 72.7----
2024-07-24 07:48 pm-------30.02- 77.7 72.7----
2024-07-24 07:42 pm-------30.02- 77.7 72.7----
2024-07-24 07:36 pm-------30.02- 77.7 72.5----
2024-07-24 07:30 pm-------30.02- 78.1 72.5----
2024-07-24 07:24 pm-------30.01- 77.5 72.5----
2024-07-24 07:18 pm-------30.01- 77.7 72.5----
2024-07-24 07:00 pm-------30.01-0.03 77.9 72.5----
2024-07-24 06:54 pm-------30.01- 78.1 72.5----
2024-07-24 06:48 pm-------30.01-- 72.7----
2024-07-24 06:42 pm-------30.01-- 72.7----
2024-07-24 06:36 pm-------30.01-- 72.7----
2024-07-24 06:30 pm-------30.01- 77.9 72.7----
2024-07-24 06:24 pm-------30.01- 77.4 72.7----
2024-07-24 06:18 pm-------30.01- 77.5 72.7----
2024-07-24 06:12 pm-------30.01- 78.1 72.7----
2024-07-24 06:06 pm-------30.01- 78.1 72.7----
2024-07-24 06:00 pm-------30.01-0.04 77.9 72.7----
2024-07-24 05:54 pm-------30.01- 77.7 72.7----
2024-07-24 05:48 pm-------30.01- 76.5 72.7----
2024-07-24 05:42 pm-------30.01- 75.9 72.7----
2024-07-24 05:36 pm-------30.01- 75.0 72.7----
2024-07-24 05:30 pm-------30.02- 75.2 72.7----
2024-07-24 05:24 pm-------30.02- 75.7 72.7----
2024-07-24 05:18 pm-------30.01- 75.4 72.7----
2024-07-24 05:12 pm-------30.02- 75.4 72.7----
2024-07-24 05:06 pm-------30.02- 75.7 72.7----
2024-07-24 05:00 pm-------30.02-0.04 76.1 72.9----
2024-07-24 04:54 pm-------30.02- 76.5 72.9----
2024-07-24 04:48 pm-------30.02-- 72.9----
2024-07-24 04:42 pm-------30.03-- 72.9----
2024-07-24 04:36 pm-------30.02-- 72.9----
2024-07-24 04:30 pm-------30.02- 78.8 72.9----
2024-07-24 04:24 pm-------30.02- 78.6 72.9----
2024-07-24 04:18 pm-------30.02- 78.3 72.7----
2024-07-24 04:12 pm-------30.03- 76.5 72.7----
2024-07-24 04:06 pm-------30.03- 76.5 72.7----
2024-07-24 04:00 pm-------30.03-0.03 75.4 72.7----
2024-07-24 03:54 pm-------30.03- 75.0 72.7----
2024-07-24 03:48 pm-------30.03- 75.0 72.7----
2024-07-24 03:42 pm-------30.03- 75.4 72.9----
2024-07-24 03:36 pm-------30.03- 75.4 72.5----
2024-07-24 03:30 pm-------30.03- 75.2 72.5----
2024-07-24 03:24 pm-------30.03- 75.2 72.5----
2024-07-24 03:18 pm-------30.03- 75.0 72.5----
2024-07-24 03:12 pm-------30.03- 75.0 72.1----
2024-07-24 03:06 pm-------30.04- 75.2 72.1----
2024-07-24 03:00 pm-------30.04-0.03 75.0 72.1----
2024-07-24 02:54 pm-------30.04- 75.2 72.1----
2024-07-24 02:48 pm-------30.04- 75.7 72.1----
2024-07-24 02:42 pm-------30.05- 76.5 72.1----
2024-07-24 02:36 pm-------30.05- 77.4 72.1----
2024-07-24 02:30 pm-------30.05- 79.7 72.0----
2024-07-24 02:24 pm-------30.05- 78.4 72.0----
2024-07-24 02:18 pm-------30.05- 78.1 72.1----
2024-07-24 02:12 pm-------30.05- 78.1 72.0----
2024-07-24 02:06 pm-------30.06- 77.4 72.0----
2024-07-24 02:00 pm-------30.06-0.01 76.3 72.0----
2024-07-24 01:54 pm-------30.06- 76.6 72.0----
2024-07-24 01:48 pm-------30.07- 77.4 72.1----
2024-07-24 01:42 pm-------30.07- 77.7 72.0----
2024-07-24 01:36 pm-------30.07- 77.7 72.1----
2024-07-24 01:30 pm-------30.07- 77.9 72.0----
2024-07-24 01:24 pm-------30.07- 78.4 72.1----
2024-07-24 01:18 pm-------30.07- 78.4 72.1----
2024-07-24 01:12 pm-------30.07- 79.2 72.1----
2024-07-24 01:06 pm-------30.06- 78.8 72.0----
2024-07-24 01:00 pm-------30.06-0.01 79.2 72.0----
2024-07-24 12:54 pm-------30.06- 78.1 72.0----
2024-07-24 12:48 pm-------30.07-- 72.0----
2024-07-24 12:42 pm-------30.07-- 72.0----
2024-07-24 12:36 pm-------30.07-- 72.0----
2024-07-24 12:30 pm-------30.06- 78.1 72.0----
2024-07-24 12:24 pm-------30.07- 77.4 72.0----
2024-07-24 12:18 pm-------30.06- 76.3 72.0----
2024-07-24 12:12 pm-------30.07- 76.6 72.0----
2024-07-24 12:06 pm-------30.07- 76.3 72.0----
2024-07-24 12:00 pm-------30.07+0.00 76.3 72.0----
2024-07-24 11:54 am-------30.07- 76.3 72.0----
2024-07-24 11:48 am-------30.07-- 72.0----
2024-07-24 11:42 am-------30.07-- 72.0----
2024-07-24 11:36 am-------30.08-- 72.0----
2024-07-24 11:30 am-------30.07- 76.8 72.0----
2024-07-24 11:24 am-------30.07- 76.5 72.0----
2024-07-24 11:18 am-------30.07- 76.1 72.0----
2024-07-24 11:12 am-------30.07- 76.1 72.1----
2024-07-24 11:06 am-------30.07- 75.9 72.0----
2024-07-24 11:00 am-------30.07+0.01 75.7 72.0----
2024-07-24 10:54 am-------30.07- 76.3 72.0----
2024-07-24 10:48 am-------30.07- 75.9 72.1----
2024-07-24 10:42 am-------30.06- 75.9 72.3----
2024-07-24 10:36 am-------30.07- 75.6 72.3----
2024-07-24 10:30 am-------30.07- 75.0 72.3----
2024-07-24 10:24 am-------30.07- 75.0 72.5----
2024-07-24 10:18 am-------30.07- 75.0 72.5----
2024-07-24 10:12 am-------30.07- 75.0 72.5----
2024-07-24 10:06 am-------30.08- 74.8 72.5----
2024-07-24 10:00 am-------30.07+0.03 74.8 72.5----
2024-07-24 09:54 am-------30.07- 74.7 72.5----
2024-07-24 09:48 am-------30.07-- 72.5----
2024-07-24 09:42 am-------30.08-- 72.5----
2024-07-24 09:36 am-------30.07-- 72.5----
2024-07-24 09:30 am-------30.08- 74.3 72.5----
2024-07-24 09:24 am-------30.08- 74.3 72.5----
2024-07-24 09:18 am-------30.08- 74.1 72.5----
2024-07-24 09:12 am-------30.08- 73.9 72.3----
2024-07-24 09:06 am-------30.08- 73.9 72.3----
2024-07-24 09:00 am-------30.07+0.02 74.1 72.3----
2024-07-24 08:54 am-------30.07- 74.3 72.3----
2024-07-24 08:48 am-------30.07- 74.3 72.3----
2024-07-24 08:42 am-------30.07- 74.3 72.3----
2024-07-24 08:36 am-------30.07- 74.3 72.3----
2024-07-24 08:30 am-------30.07- 74.1 72.5----
2024-07-24 08:24 am-------30.07- 73.9 72.7----
2024-07-24 08:18 am-------30.07- 73.8 72.9----
2024-07-24 08:12 am-------30.06- 73.4 72.7----
2024-07-24 08:06 am-------30.06- 73.6 72.5----
2024-07-24 08:00 am-------30.06+0.00 73.6 72.3----
2024-07-24 07:54 am-------30.06- 74.1 72.1----
2024-07-24 07:48 am-------30.06- 74.3 72.1----
2024-07-24 07:42 am-------30.06- 74.5 72.1----
2024-07-24 07:36 am-------30.06- 74.5 72.1----
2024-07-24 07:30 am-------30.06- 74.1 72.0----
2024-07-24 07:24 am-------30.06- 73.8 72.0----
2024-07-24 07:18 am-------30.06- 73.8 72.1----
2024-07-24 07:12 am-------30.05- 73.9 72.1----
2024-07-24 07:06 am-------30.05- 73.8 72.0----
2024-07-24 07:00 am-------30.04+0.00 73.4 72.0----
2024-07-24 06:54 am-------30.04- 73.4 72.0----
2024-07-24 06:48 am-------30.05- 73.4 72.1----
2024-07-24 06:42 am-------30.05- 73.6 72.1----
2024-07-24 06:36 am-------30.05- 73.6 72.1----
2024-07-24 06:30 am-------30.05- 73.8 72.1----
2024-07-24 06:24 am-------30.05- 73.6 72.1----
2024-07-24 06:18 am-------30.05- 73.6 72.1----
2024-07-24 06:12 am-------30.05- 73.6 72.0----
2024-07-24 06:06 am-------30.05- 73.8 72.0----
2024-07-24 06:00 am-------30.05+0.00 73.9 72.0----
2024-07-24 05:54 am-------30.05- 74.1 72.0----
2024-07-24 05:48 am-------30.05- 74.3 72.0----
2024-07-24 05:42 am-------30.05- 74.1 72.0----
2024-07-24 05:36 am-------30.05- 74.3 72.0----
2024-07-24 05:30 am-------30.06- 74.3 72.0----
2024-07-24 05:24 am-------30.06- 74.1 72.0----
2024-07-24 05:18 am-------30.06- 74.3 72.0----
2024-07-24 05:12 am-------30.07- 74.3 72.0----
2024-07-24 05:06 am-------30.07- 74.5 72.0----
2024-07-24 05:00 am-------30.06+0.00 74.5 72.0----
2024-07-24 04:54 am-------30.06- 74.5 72.0----
2024-07-24 04:48 am-------30.06- 74.5 72.0----
2024-07-24 04:42 am-------30.06- 74.5 72.0----
2024-07-24 04:36 am-------30.06- 74.5 72.0----
2024-07-24 04:30 am-------30.06- 74.3 72.0----
2024-07-24 04:24 am-------30.05- 74.1 72.0----
2024-07-24 04:18 am-------30.05- 74.1 72.0----
2024-07-24 04:12 am-------30.05- 74.3 72.0----
2024-07-24 04:06 am-------30.05- 74.3 72.0----
2024-07-24 04:00 am-------30.05-0.01 74.7 72.0----
2024-07-24 03:54 am-------30.04- 74.7 72.0----
2024-07-24 03:48 am-------30.04- 74.8 72.0----
2024-07-24 03:42 am-------30.04- 75.0 72.0----
2024-07-24 03:36 am-------30.04- 75.0 72.0----
2024-07-24 03:30 am-------30.04- 75.0 72.0----
2024-07-24 03:24 am-------30.04- 74.8 72.0----
2024-07-24 03:18 am-------30.04- 74.7 72.0----
2024-07-24 03:12 am-------30.05- 74.8 72.0----
2024-07-24 03:06 am-------30.05- 74.7 72.0----
2024-07-24 03:00 am-------30.05+0.00 74.8 72.0----
2024-07-24 02:54 am-------30.06- 74.8 71.8----
2024-07-24 02:48 am-------30.06- 74.8 71.8----
2024-07-24 02:42 am-------30.06- 74.8 71.6----
2024-07-24 02:36 am-------30.06- 74.8 71.6----
2024-07-24 02:30 am-------30.06- 74.8 71.6----
2024-07-24 02:24 am-------30.06- 74.8 71.4----
2024-07-24 02:18 am-------30.06- 74.8 71.4----
2024-07-24 02:12 am-------30.06- 74.7 71.4----
2024-07-24 02:06 am-------30.06- 74.7 71.2----
2024-07-24 02:00 am-------30.06+0.01 74.8 71.2----
2024-07-24 01:54 am-------30.06- 74.7 71.2----
2024-07-24 01:48 am-------30.06- 74.7 71.6----
2024-07-24 01:42 am-------30.06- 74.5 71.6----
2024-07-24 01:36 am-------30.06- 74.7 71.4----
2024-07-24 01:30 am-------30.06- 74.7 71.4----
2024-07-24 01:24 am-------30.06- 74.7 71.2----
2024-07-24 01:18 am-------30.07- 74.8 71.2----
2024-07-24 01:12 am-------30.06- 75.0 71.1----
2024-07-24 01:06 am-------30.06- 75.0 70.9----
2024-07-24 01:00 am-------30.06+0.00 75.0 71.1----
2024-07-24 12:54 am-------30.06- 74.8 71.1----
2024-07-24 12:48 am-------30.05- 74.8 71.1----
2024-07-24 12:42 am-------30.06- 75.0 71.2----
2024-07-24 12:36 am-------30.05- 75.2 71.2----
2024-07-24 12:30 am-------30.05- 75.4 71.4----
2024-07-24 12:24 am-------30.05- 75.7 71.8----
2024-07-24 12:18 am-------30.05- 75.9 72.0----
2024-07-24 12:12 am-------30.05- 75.9 72.0----
2024-07-24 12:06 am-------30.05- 75.7 72.0----
2024-07-24 12:00 am-------30.05+0.01 75.6 72.0----
2024-07-23 11:54 pm-------30.06- 75.6 72.0----
2024-07-23 11:48 pm-------30.05- 75.9 72.0----
2024-07-23 11:42 pm-------30.05- 75.6 72.1----
2024-07-23 11:36 pm-------30.05- 75.7 72.1----
2024-07-23 11:30 pm-------30.05- 75.7 72.1----
2024-07-23 11:24 pm-------30.05- 75.6 72.1----
2024-07-23 11:18 pm-------30.06- 75.7 72.1----
2024-07-23 11:12 pm-------30.05- 75.6 72.1----
2024-07-23 11:06 pm-------30.05- 75.2 72.1----
2024-07-23 11:00 pm-------30.05+0.02 74.7 72.1----
2024-07-23 10:54 pm-------30.05- 75.0 72.1----
2024-07-23 10:48 pm-------30.05- 74.8 72.1----
2024-07-23 10:42 pm-------30.05- 75.0 72.1----
2024-07-23 10:36 pm-------30.05- 75.0 72.1----
2024-07-23 10:30 pm-------30.05- 75.0 72.1----
2024-07-23 10:24 pm-------30.05- 75.0 72.1----
2024-07-23 10:18 pm-------30.05- 75.2 72.1----
2024-07-23 10:12 pm-------30.05- 75.4 72.1----
2024-07-23 10:06 pm-------30.05- 75.6 72.0----
2024-07-23 10:00 pm-------30.05+0.04 75.6 72.0----
2024-07-23 09:54 pm-------30.05- 75.7 72.0----
2024-07-23 09:48 pm-------30.05- 76.1 72.0----
2024-07-23 09:42 pm-------30.05- 76.3 72.0----
2024-07-23 09:36 pm-------30.04- 76.3 72.3----
2024-07-23 09:30 pm-------30.05- 75.9 72.5----
2024-07-23 09:24 pm-------30.04- 76.1 72.5----
2024-07-23 09:18 pm-------30.04- 76.5 72.5----
2024-07-23 09:12 pm-------30.04- 76.6 72.5----
2024-07-23 09:06 pm-------30.04- 76.8 72.5----
2024-07-23 09:00 pm-------30.04+0.04 76.6 72.5----
2024-07-23 08:54 pm-------30.04- 76.5 72.5----